EHI
0 0 0 0 0 0 0 0 0 0 0 0 0 0 0 0 0 0 0 0 0 0 0 0 0 0 0 0 0 0 0 0 0 0 0 0 0 0 0 0 0 0 0
0 0 0 0 0 0 0 0 0 0 0 0 0 0 0 0 0 0 0 0 0 0 0 0 0 0 0 0 0 0 0 0 0 0 0 0 0 0 0 0 0 0 0
0 0 0 0 0 0 0 0 0 0 0 0 0 0 0 0 0 0 0 0 0 0 0 0 0 0 0 0 0 0 0 0 0 0 0 0 0 0 0 0 0 0 0
0 0 0 0 0 0 0 0 0 0 0 0 0 0 0 0 0 0 0 0 0 0 0 0 0 0 0 0 0 0 0 0 0 0 0 0 0 0 0 0 0 0 0
0 0 1 1 0 0 0 0 0 0 0 0 0 0 0 0 0 0 0 0 0 0 0 0 0 0 0 0 0 0 0 0 0 0 0 0 0 0 0 0 0 0 0
0 1 1 1 0 0 0 0 0 0 0 0 0 0 0 0 0 0 0 0 0 0 0 0 0 0 0 0 0 0 0 0 0 0 0 0 0 0 0 0 0 0 0
2 3 4 3 2 1 0 0 0 0 0 0 0 0 0 0 0 0 0 0 0 0 0 0 0 0 0 0 0 0 0 0 0 0 0 0 0 0 0 0 0 0 0
6 7 8 8 7 5 2 0 0 0 0 0 0 0 0 0 0 0 0 0 0 0 0 0 0 0 0 0 0 0 0 0 0 0 0 0 0 0 0 0 0 0 0
9 10 11 12 12 9 5 2 0 1 1 1 0 0 0 0 0 0 0 0 0 0 0 0 0 0 0 0 0 0 0 0 0 0 0 0 0 0 0 0 0 0 0
6 9 11 14 16 15 11 5 2 3 4 3 1 0 0 0 0 0 0 0 0 0 0 0 0 0 0 0 0 0 0 0 0 0 0 0 0 0 0 0 0 0 0
2 5 9 13 16 17 14 9 6 5 5 4 1 0 0 0 0 0 0 0 0 0 0 0 0 0 0 0 0 0 0 0 0 0 0 0 0 0 0 0 0 0 0
1 2 5 10 14 14 12 10 8 6 5 3 1 0 1 0 0 0 0 0 0 0 0 0 0 0 0 0 0 0 0 0 0 0 0 0 0 0 0 0 0 0 0
3 3 4 7 10 10 8 8 8 7 4 1 0 0 0 0 0 0 0 0 0 0 0 0 0 0 0 0 0 0 0 0 0 0 0 0 0 0 0 0 0 0 0
4 4 5 5 5 5 5 6 7 6 3 0 0 0 0 0 0 0 0 0 0 0 0 0 0 0 0 0 0 0 0 0 0 0 0 0 0 0 0 0 0 0 0
3 4 5 5 3 2 3 4 5 4 2 0 0 0 0 0 0 0 0 0 0 0 0 0 0 0 0 0 0 0 0 0 0 0 0 0 0 0 0 0 0 0 0
1 2 3 3 3 2 3 3 2 1 0 0 0 0 0 0 0 0 0 0 0 0 0 0 0 0 0 0 0 0 0 0 0 0 0 0 0 0 0 0 0 0 0
0 0 1 1 1 1 2 1 0 0 0 0 0 0 0 0 0 0 0 0 0 0 0 0 0 0 0 0 0 0 0 0 0 0 0 0 0 0 0 0 0 0 0
0 0 0 0 0 0 0 0 0 0 0 0 0 0 0 0 0 0 0 0 0 0 0 0 0 0 0 0 0 0 0 0 0 0 0 0 0 0 0 0 0 0 0
0 0 0 0 0 0 0 0 0 0 0 0 0 0 0 0 0 0 0 0 0 0 0 0 0 0 0 0 0 0 0 0 0 0 0 0 0 0 0 0 0 0 0
0 0 0 0 0 0 0 0 0 0 0 0 0 0 0 0 0 0 0 0 0 0 0 0 0 0 0 0 0 0 0 0 0 0 0 0 0 0 0 0 0 0 0
0 0 0 0 0 0 0 0 0 0 0 0 0 0 0 0 0 0 0 0 0 0 0 0 0 0 0 0 0 0 0 0 0 0 0 0 0 0 0 0 0 0 0
0 0 0 0 0 0 0 0 0 0 0 0 0 0 0 0 0 0 0 0 0 0 0 0 0 0 0 0 0 0 0 0 0 0 0 0 0 0 0 0 0 0 0
0 0 0 0 0 0 0 0 0 0 0 0 0 0 0 0 0 0 0 0 0 0 0 0 0 0 0 0 0 0 0 0 0 0 0 0 0 0 0 0 0 0 0
0 0 0 0 0 0 0 0 0 0 0 0 0 0 0 0 0 0 0 0 0 0 0 0 0 0 0 0 0 0 0 0 0 0 0 0 0 0 0 0 0 0 0
0 0 0 0 0 0 0 0 0 0 0 0 0 0 0 0 0 0 0 0 0 0 0 0 0 0 0 0 0 0 0 0 0 0 0 0 0 0 0 0 0 0 0
0 0 0 0 0 0 0 0 0 0 0 0 0 0 0 0 0 0 0 0 0 0 0 0 0 0 0 0 0 0 0 0 0 0 0 0 0 0 0 0 0 0 0
Wind_Speed
7 7 6 5 6 6 6 6 7 6 6 7 6 6 6 5 3 2 5 6 3 1 1 3 4 4 4 3 3 2 3 3 3 3 4 4 5 6 7 7 6 5 4
7 7 7 6 6 6 6 6 8 6 6 6 6 6 6 5 5 4 3 7 6 3 1 1 3 4 5 5 4 3 3 3 3 4 4 4 5 6 6 6 5 5 4
9 8 7 7 7 7 8 7 7 6 6 6 7 7 6 5 5 5 4 2 5 7 4 1 1 2 4 4 5 5 4 4 4 4 4 4 5 5 6 5 5 5 5
10 8 7 7 7 6 6 6 6 6 7 7 7 6 6 5 7 5 4 5 3 3 7 5 2 1 2 3 4 4 4 4 4 4 4 4 5 5 5 5 5 5 5
9 8 7 7 8 6 6 6 7 7 6 6 6 5 6 6 6 6 7 6 5 4 3 8 5 3 2 2 3 3 4 4 5 4 4 4 4 4 4 4 4 5 5
9 8 7 8 7 6 6 6 6 6 5 5 6 6 6 6 6 6 6 5 5 6 5 5 6 7 5 3 2 3 3 4 4 4 4 4 4 4 3 3 3 3 4
10 9 7 8 7 7 7 8 6 7 6 6 6 6 6 8 8 6 6 6 6 5 6 6 4 4 6 7 4 3 3 3 3 4 4 4 4 3 3 2 2 1 1
11 10 11 9 8 7 8 8 6 4 4 4 5 5 6 7 7 8 7 7 8 7 8 7 7 6 4 5 8 5 2 3 3 4 4 4 4 4 3 3 2 1 1
11 11 12 11 10 9 7 8 9 9 6 5 5 4 5 6 5 6 9 9 8 6 7 7 8 8 7 5 6 9 6 4 4 5 5 5 4 4 4 3 2 2 2
8 10 11 11 10 9 9 10 10 8 8 6 5 5 4 3 3 4 6 8 8 8 8 6 7 8 8 6 5 5 8 6 6 6 6 5 5 5 4 4 3 3 4
5 6 8 8 9 8 9 10 10 10 9 8 6 5 5 2 5 3 4 4 5 6 7 7 7 6 6 7 6 8 10 8 7 7 6 6 6 5 5 5 4 4 5
2 4 5 6 7 7 8 9 10 12 10 10 8 7 5 4 4 4 4 3 3 3 4 4 5 5 5 6 7 8 9 9 9 8 7 6 6 5 5 5 6 6 6
1 2 2 4 5 6 6 7 8 9 10 10 10 7 7 5 4 3 3 3 3 2 3 4 4 4 5 6 5 9 10 10 10 9 8 7 6 5 5 5 6 7 7
2 1 0 1 2 3 4 4 5 6 7 9 9 9 6 6 5 5 4 4 3 3 4 5 2 3 3 4 3 7 8 12 11 10 9 9 8 6 5 5 5 5 6
4 4 3 2 1 1 2 3 3 5 5 6 7 7 6 5 5 5 4 4 4 4 5 4 3 2 2 2 3 6 8 10 11 10 10 9 9 8 6 5 5 4 4
7 6 5 4 3 2 2 2 2 2 3 4 4 6 5 4 4 5 5 5 4 3 3 3 3 3 2 3 3 5 5 8 9 9 9 9 9 8 7 6 5 5 5
8 8 6 6 6 4 3 2 2 2 2 2 3 4 5 5 4 4 4 5 4 4 3 2 2 3 4 3 3 4 4 6 7 9 8 8 8 8 7 6 6 6 6
9 8 7 7 7 6 5 3 2 2 2 3 3 4 4 4 4 3 3 4 4 4 3 4 3 3 3 2 2 3 3 3 4 8 7 6 6 5 4 4 5 5 5
9 9 9 8 8 7 5 4 3 2 2 2 3 4 4 5 4 3 3 3 3 3 3 3 3 2 2 2 3 3 4 4 4 7 7 6 5 4 3 1 1 1 2
10 10 10 9 9 8 7 5 3 1 1 1 2 3 3 4 4 4 3 3 3 3 3 3 3 3 3 3 3 4 4 4 4 6 7 8 10 11 10 8 6 5 4
11 10 10 10 10 9 10 9 5 3 2 1 1 2 3 3 2 3 3 3 4 3 3 3 3 3 3 4 4 4 5 6 5 4 6 6 6 6 7 9 10 10 9
10 10 10 10 10 9 12 12 9 4 3 2 1 1 3 4 4 5 4 2 2 3 3 3 3 4 4 4 3 4 6 6 4 4 5 6 6 7 7 7 10 12 12
10 10 10 9 9 11 14 13 11 5 4 3 2 1 1 3 3 4 6 6 4 3 1 2 3 3 4 4 5 5 5 5 5 5 6 6 5 7 7 9 13 13 13
8 8 8 8 8 11 15 13 9 5 5 4 4 3 2 4 4 3 5 6 6 5 2 2 4 5 4 4 4 5 8 9 8 4 4 5 4 6 7 8 13 15 15
7 7 7 8 8 10 15 14 11 4 4 5 5 5 3 4 5 2 5 7 8 7 10 13 13 11 11 8 3 6 7 7 6 4 3 4 5 6 6 7 10 15 15
6 6 7 8 8 9 13 15 13 4 4 4 4 4 7 5 5 1 4 6 7 7 7 8 8 8 8 7 3 3 4 6 6 4 3 4 6 5 4 4 4 5 8
Wind_Direction
235 231 224 214 220 212 199 217 225 210 222 222 209 218 203 187 185 174 119 122 119 123 224 210 201 195 194 193 196 190 180 176 169 164 157 161 165 163 158 156 159 160 161
239 237 236 222 223 219 217 217 217 206 215 217 215 212 226 203 197 182 159 144 149 141 126 245 224 208 198 198 203 205 198 190 185 184 179 176 177 176 174 175 179 184 190
245 240 242 231 221 216 216 219 217 215 214 209 217 225 219 224 213 201 175 177 156 155 162 185 214 214 201 205 208 205 204 200 196 194 193 193 193 193 194 197 204 212 220
250 247 241 241 234 225 221 210 219 212 211 214 219 213 215 205 225 219 205 194 183 159 159 157 169 188 202 206 203 202 203 201 200 197 198 199 202 205 210 218 224 230 238
261 250 244 242 235 225 225 219 210 216 220 221 228 222 226 210 210 214 221 210 178 201 168 145 168 170 173 190 194 198 200 202 199 197 197 199 200 204 213 226 236 242 248
257 252 247 243 235 219 214 218 215 216 230 229 236 229 226 219 220 216 227 223 214 193 197 173 180 163 165 168 179 191 194 198 195 194 194 192 191 195 207 222 235 244 250
239 239 240 238 229 219 211 207 205 214 219 225 234 230 226 224 229 212 219 224 218 204 207 199 205 180 163 169 181 183 185 185 182 181 178 172 170 173 177 181 205 227 242
231 232 231 230 223 218 213 206 194 204 214 220 227 233 232 221 222 228 223 226 233 205 217 207 201 192 195 177 137 165 171 184 183 177 172 169 167 166 165 166 169 183 194
232 229 231 228 223 216 214 204 198 199 199 208 232 226 228 227 214 210 219 222 228 228 220 218 212 195 193 195 166 173 179 194 200 192 184 178 174 173 176 178 179 184 172
241 231 229 228 226 219 214 212 205 203 196 195 209 235 248 271 225 209 207 221 221 223 229 219 226 220 201 198 178 144 174 195 206 205 195 186 184 185 190 193 186 180 165
245 237 229 225 222 217 216 215 207 204 202 199 192 194 216 244 253 244 223 207 209 218 225 227 219 221 215 211 204 181 176 198 206 211 205 195 192 195 197 195 195 182 170
238 228 222 220 217 213 213 213 211 207 207 203 198 193 188 187 206 221 232 232 233 226 227 229 240 222 219 226 212 154 179 200 207 210 209 201 198 201 200 198 198 189 179
281 240 213 213 211 211 212 214 214 210 207 205 203 202 202 199 182 188 210 222 229 237 244 229 228 229 223 227 207 169 197 205 209 209 205 197 193 200 210 214 211 201 196
4 12 2 195 198 200 204 210 215 212 210 210 211 205 202 200 194 194 194 193 206 218 230 232 206 219 222 228 180 185 204 198 207 208 204 198 193 196 207 220 225 221 215
27 39 52 73 98 169 194 197 208 211 212 214 211 208 203 201 200 199 192 195 195 204 215 218 208 203 214 235 161 216 218 184 197 204 204 199 195 197 203 216 228 229 226
35 41 47 58 69 81 125 149 173 185 201 204 204 203 197 195 194 191 190 196 203 206 206 186 198 183 194 218 192 239 220 151 192 201 201 198 195 197 203 214 223 228 231
37 44 45 52 58 62 75 104 123 138 154 164 174 185 182 177 180 182 184 188 195 194 196 181 193 190 204 221 188 214 205 201 181 184 191 192 194 198 204 218 228 234 241
35 37 39 47 50 52 53 60 80 119 146 161 164 164 166 162 164 169 175 182 181 188 192 189 187 190 210 197 204 199 196 196 173 148 168 175 183 192 208 228 240 247 255
35 39 40 42 42 41 40 42 51 62 109 148 158 165 161 159 164 164 169 178 178 183 192 197 175 162 183 175 178 170 163 155 143 135 137 130 114 105 95 80 294 290 296
36 35 38 39 39 35 27 20 33 46 78 120 144 157 158 160 165 162 164 174 177 180 187 191 181 175 170 168 190 167 148 130 122 115 96 95 94 85 76 68 64 61 56
38 35 36 35 35 33 23 9 5 16 30 48 108 161 153 157 171 173 174 180 184 187 186 191 184 180 172 174 180 166 144 128 103 105 105 97 96 85 82 73 68 67 67
36 34 32 33 33 31 19 16 360 15 24 43 61 97 150 173 169 171 164 160 181 194 191 189 191 185 165 159 149 157 149 149 121 105 101 84 80 77 65 64 61 69 70
33 31 29 27 29 26 19 20 10 10 31 33 42 72 102 107 139 145 142 148 125 76 346 214 169 145 139 145 156 157 152 130 110 123 112 93 86 83 76 64 61 65 67
34 31 26 21 23 26 18 15 355 27 43 43 42 52 98 118 104 127 142 131 114 90 62 109 103 93 94 117 130 124 117 110 103 97 113 103 105 95 87 73 64 66 66
28 32 31 22 21 24 17 11 354 36 46 50 50 49 53 108 97 111 141 129 116 98 69 65 66 76 67 52 68 131 137 133 121 105 101 111 123 110 97 96 84 77 70
25 28 33 27 25 24 19 13 359 22 42 52 59 71 61 58 91 73 150 136 124 116 116 111 104 109 100 88 35 127 136 138 131 117 120 127 151 144 113 86 90 102 90